Terminal Aerodrome Forecast
Issued by NWS

Home | Current Version | Previous Version | Graphics & Text | Print | Product List | Glossary On
Versions: 1 2 3 4 5 6 7 8 9 10 11 12 13 14 15
875
FTUS43 KICT 231720
TAFCNU
TAF
KCNU 231720Z 2318/2418 16007KT P6SM VCTS SCT040CB
     FM232000 15008KT P6SM VCTS BKN070CB
      TEMPO 2320/2324 5SM -TSRA BR BKN035CB
     FM240000 15007KT P6SM SCT060 BKN200
     FM241500 17006KT P6SM BKN150=

USA.gov is the U.S. government's official web portal to all federal, state and local government web resources and services.